Date String (YYYY-MM-DD hh:mm:ss) UTC,Instrument flags,Ambient pressure (hPa),Sample flow (lpm),Bypass flow (lpm),Sample temperature (°C),Ambient temperature (°C),ASC tube jacket temperature (°C),LED temperature (°C),Box temperature (°C),Sample RH (%),Span deviation,Mass concentration (μg/m³),Mass concentration (μg/m³),Mass concentration (μg/m³)
DateTimeUTC,F1_M11,P_M11,Q1_M11,Q2_M11,T1_M11,T2_M11,T3_M11,T4_M11,T5_M11,U1_M11,ZSPAN_M11,X2_M11,X0_M11,X1_M11
2022-04-03 07:00:00,,0821.9,4.99,0.00,29.6,28.6,00.0,38.6,31.3,08.9,0000.0,0005.63,0015.74,0004.09
2022-04-03 07:01:00,,0821.9,5.01,0.00,29.6,28.6,00.0,38.6,31.3,08.9,0000.0,0005.70,0016.07,0004.17
2022-04-03 07:02:00,,0821.8,5.00,0.00,29.6,28.6,00.0,38.6,31.3,09.0,0000.0,0005.70,0015.90,0004.21
2022-04-03 07:03:00,,0821.9,4.98,0.00,29.5,28.5,00.0,38.5,31.2,09.2,0000.0,0005.60,0015.30,0004.14
2022-04-03 07:04:00,,0821.9,5.01,0.00,29.5,28.5,00.0,38.5,31.1,09.3,0000.0,0005.47,0014.10,0004.02
2022-04-03 07:05:00,,0822.1,4.99,0.00,29.5,28.5,00.0,38.5,31.1,09.3,0000.0,0005.38,0013.32,0003.93
2022-04-03 07:06:00,,0822.1,5.00,0.00,29.4,28.5,00.0,38.5,31.1,09.4,0000.0,0005.31,0013.36,0003.85
2022-04-03 07:07:00,,0822.1,5.01,0.00,29.4,28.5,00.0,38.5,31.1,09.4,0000.0,0005.25,0013.46,0003.78
2022-04-03 07:08:00,,0822.0,4.99,0.00,29.4,28.4,00.0,38.5,31.0,09.3,0000.0,0005.19,0013.11,0003.71
2022-04-03 07:09:00,,0822.0,5.01,0.00,29.3,28.3,00.0,38.5,30.9,09.3,0000.0,0005.12,0013.17,0003.62
2022-04-03 07:10:00,,0821.9,5.01,0.00,29.3,28.3,00.0,38.4,30.9,09.3,0000.0,0004.99,0012.86,0003.53
2022-04-03 07:11:00,,0821.8,4.99,0.00,29.2,28.2,00.0,38.4,30.8,09.3,0000.0,0004.85,0011.72,0003.42
2022-04-03 07:12:00,,0821.8,4.99,0.00,29.2,28.2,00.0,38.4,30.8,09.4,0000.0,0004.74,0011.21,0003.32
2022-04-03 07:13:00,,0822.0,5.02,0.00,29.1,28.1,00.0,38.4,30.8,09.4,0000.0,0004.70,0011.32,0003.21
2022-04-03 07:14:00,,0821.8,5.00,0.00,29.1,28.1,00.0,38.3,30.7,09.3,0000.0,0004.66,0011.42,0003.16
2022-04-03 07:15:00,,0821.8,4.99,0.00,29.1,28.1,00.0,38.3,30.7,09.3,0000.0,0004.65,0011.36,0003.16
2022-04-03 07:16:00,,0821.8,5.01,0.00,29.1,28.1,00.0,38.3,30.8,09.3,0000.0,0004.64,0011.42,0003.16
2022-04-03 07:17:00,,0821.9,5.00,0.00,29.1,28.1,00.0,38.3,30.8,09.2,0000.0,0004.64,0011.37,0003.17
2022-04-03 07:18:00,,0822.0,5.01,0.00,29.1,28.2,00.0,38.2,30.8,09.1,0000.0,0004.64,0010.88,0003.21
2022-04-03 07:19:00,,0822.0,4.99,0.00,29.1,28.2,00.0,38.2,30.8,09.1,0000.0,0004.70,0010.81,0003.26
2022-04-03 07:20:00,,0822.1,5.01,0.00,29.1,28.2,00.0,38.2,30.8,09.3,0000.0,0004.78,0010.85,0003.29
2022-04-03 07:21:00,,0822.0,5.00,0.00,29.1,28.2,00.0,38.2,30.7,09.4,0000.0,0004.80,0010.93,0003.30
2022-04-03 07:22:00,,0821.9,4.99,0.00,29.0,28.1,00.0,38.2,30.7,09.3,0000.0,0004.84,0010.96,0003.31
2022-04-03 07:23:00,,0822.0,5.00,0.00,29.0,28.1,00.0,38.2,30.7,09.2,0000.0,0004.87,0011.04,0003.30
2022-04-03 07:24:00,,0821.9,5.02,0.00,29.0,28.1,00.0,38.1,30.7,09.3,0000.0,0004.86,0010.98,0003.30
2022-04-03 07:25:00,,0821.8,4.99,0.00,29.0,28.1,00.0,38.1,30.7,09.1,0000.0,0004.90,0011.72,0003.32
2022-04-03 07:26:00,,0821.9,4.99,0.00,29.0,28.1,00.0,38.1,30.7,09.1,0000.0,0004.85,0011.92,0003.31
2022-04-03 07:27:00,,0821.8,5.02,0.00,29.0,28.1,00.0,38.1,30.7,09.2,0000.0,0004.76,0012.74,0003.27
2022-04-03 07:28:00,,0821.8,5.00,0.00,29.0,28.1,00.0,38.1,30.7,09.2,0000.0,0004.72,0013.12,0003.22
2022-04-03 07:29:00,,0821.8,4.99,0.00,29.0,28.1,00.0,38.1,30.7,09.1,0000.0,0004.66,0013.04,0003.15
2022-04-03 07:30:00,,0821.9,4.99,0.00,28.9,28.0,00.0,38.0,30.6,09.1,0000.0,0004.58,0012.69,0003.07
2022-04-03 07:31:00,,0821.8,5.02,0.00,28.9,28.0,00.0,38.0,30.6,09.1,0000.0,0004.46,0012.31,0002.96
2022-04-03 07:32:00,,0821.8,4.99,0.00,28.9,28.0,00.0,38.0,30.6,09.1,0000.0,0004.46,0012.74,0002.89
2022-04-03 07:33:00,,0821.8,5.00,0.00,28.9,28.1,00.0,38.0,30.6,09.1,0000.0,0004.44,0013.34,0002.81
2022-04-03 07:34:00,,0821.9,5.00,0.00,28.9,28.1,00.0,38.0,30.7,09.1,0000.0,0004.41,0013.47,0002.78
2022-04-03 07:35:00,,0821.8,5.01,0.00,29.0,28.1,00.0,38.0,30.7,09.1,0000.0,0004.34,0013.42,0002.74
2022-04-03 07:36:00,,0821.8,4.99,0.00,29.0,28.2,00.0,38.0,30.7,09.0,0000.0,0004.28,0012.63,0002.68
2022-04-03 07:37:00,,0821.8,5.01,0.00,29.0,28.2,00.0,38.0,30.8,09.1,0000.0,0004.25,0012.14,0002.61
2022-04-03 07:38:00,,0821.8,5.00,0.00,29.0,28.2,00.0,38.0,30.7,09.3,0000.0,0004.30,0011.32,0002.58
2022-04-03 07:39:00,,0821.8,5.00,0.00,29.0,28.1,00.0,38.0,30.7,09.2,0000.0,0004.28,0010.68,0002.57
2022-04-03 07:40:00,,0821.9,5.01,0.00,28.9,28.0,00.0,38.0,30.6,09.3,0000.0,0004.31,0011.79,0002.56
2022-04-03 07:41:00,,0821.8,4.99,0.00,28.9,28.0,00.0,38.0,30.6,09.7,0000.0,0004.34,0012.46,0002.55
2022-04-03 07:42:00,,0821.7,5.00,0.00,28.9,28.0,00.0,38.0,30.5,09.7,0000.0,0004.42,0012.75,0002.58
2022-04-03 07:43:00,,0821.7,5.00,0.00,28.9,27.9,00.0,37.9,30.5,09.8,0000.0,0004.39,0012.55,0002.58
2022-04-03 07:44:00,,0821.7,5.01,0.00,28.8,28.0,00.0,37.9,30.6,09.7,0000.0,0004.42,0011.79,0002.63
2022-04-03 07:45:00,,0821.7,4.99,0.00,28.8,28.0,00.0,37.9,30.6,09.8,0000.0,0004.44,0011.58,0002.69
2022-04-03 07:46:00,,0821.6,4.99,0.00,28.9,28.0,00.0,37.9,30.6,09.8,0000.0,0004.48,0011.53,0002.74
2022-04-03 07:47:00,,0821.5,5.01,0.00,28.8,28.0,00.0,37.9,30.6,10.4,0000.0,0004.49,0011.55,0002.72
2022-04-03 07:48:00,,0821.7,5.00,0.00,28.8,28.0,00.0,37.9,30.6,10.6,0000.0,0004.51,0011.97,0002.66
2022-04-03 07:49:00,,0821.7,5.01,0.00,28.8,28.0,00.0,37.9,30.5,10.9,0000.0,0004.48,0012.06,0002.61
2022-04-03 07:50:00,,0821.7,4.99,0.00,28.8,28.0,00.0,37.9,30.5,10.8,0000.0,0004.49,0012.03,0002.57
2022-04-03 07:51:00,,0821.7,5.02,0.00,28.8,28.0,00.0,37.9,30.5,10.6,0000.0,0004.46,0010.99,0002.52
2022-04-03 07:52:00,,0821.7,4.99,0.00,28.8,28.0,00.0,37.9,30.6,10.6,0000.0,0004.48,0010.55,0002.52
2022-04-03 07:53:00,,0821.7,5.00,0.00,28.8,28.0,00.0,37.9,30.6,10.6,0000.0,0004.41,0010.47,0002.48
2022-04-03 07:54:00,,0821.7,5.01,0.00,28.9,28.0,00.0,37.9,30.6,10.5,0000.0,0004.36,0010.49,0002.46
2022-04-03 07:55:00,,0821.7,5.01,0.00,28.9,28.0,00.0,37.9,30.6,10.2,0000.0,0004.28,0010.45,0002.41
2022-04-03 07:56:00,,0821.7,4.99,0.00,28.9,28.0,00.0,37.9,30.6,09.9,0000.0,0004.24,0010.33,0002.39
2022-04-03 07:57:00,,0821.7,5.00,0.00,28.9,28.0,00.0,37.9,30.7,09.9,0000.0,0004.24,0010.30,0002.40
2022-04-03 07:58:00,,0821.7,5.02,0.00,28.9,28.1,00.0,37.9,30.7,10.0,0000.0,0004.29,0010.39,0002.46
2022-04-03 07:59:00,,0821.8,4.99,0.00,28.9,28.1,00.0,37.9,30.7,10.0,0000.0,0004.35,0010.20,0002.57
